owner,sensor,date,latitude,longitude,relative_humidity,qcFlag 
COMPS,ioos:station:USF.COMPS:ARP:1,2015-09-01T00:00:00Z,28.4330,-82.6670,91.88,1111122 
COMPS,ioos:station:USF.COMPS:ARP:1,2015-09-01T00:06:00Z,28.4330,-82.6670,91.79,1111122 
COMPS,ioos:station:USF.COMPS:ARP:1,2015-09-01T00:12:00Z,28.4330,-82.6670,91.51,1111122 
COMPS,ioos:station:USF.COMPS:ARP:1,2015-09-01T00:18:00Z,28.4330,-82.6670,91.73,1111122 
COMPS,ioos:station:USF.COMPS:ARP:1,2015-09-01T00:24:00Z,28.4330,-82.6670,90.69,1111122 
COMPS,ioos:station:USF.COMPS:ARP:1,2015-09-01T00:30:00Z,28.4330,-82.6670,88.53,1111122 
COMPS,ioos:station:USF.COMPS:ARP:1,2015-09-01T00:36:00Z,28.4330,-82.6670,88.95,1111122 
COMPS,ioos:station:USF.COMPS:ARP:1,2015-09-01T00:42:00Z,28.4330,-82.6670,89.95,1111122 
COMPS,ioos:station:USF.COMPS:ARP:1,2015-09-01T00:48:00Z,28.4330,-82.6670,90.9,1111122 
COMPS,ioos:station:USF.COMPS:ARP:1,2015-09-01T00:54:00Z,28.4330,-82.6670,91.62,1111122 
COMPS,ioos:station:USF.COMPS:ARP:1,2015-09-01T01:00:00Z,28.4330,-82.6670,92.44,1111122 
COMPS,ioos:station:USF.COMPS:ARP:1,2015-09-01T01:06:00Z,28.4330,-82.6670,93.13,1111122 
COMPS,ioos:station:USF.COMPS:ARP:1,2015-09-01T01:12:00Z,28.4330,-82.6670,93.96,1111122 
COMPS,ioos:station:USF.COMPS:ARP:1,2015-09-01T01:18:00Z,28.4330,-82.6670,94.55,1111122 
COMPS,ioos:station:USF.COMPS:ARP:1,2015-09-01T01:24:00Z,28.4330,-82.6670,95.01,1111122 
COMPS,ioos:station:USF.COMPS:ARP:1,2015-09-01T01:30:00Z,28.4330,-82.6670,95.21,1111122 
COMPS,ioos:station:USF.COMPS:ARP:1,2015-09-01T01:36:00Z,28.4330,-82.6670,95.3,1111122 
COMPS,ioos:station:USF.COMPS:ARP:1,2015-09-01T01:42:00Z,28.4330,-82.6670,95.43,1111122 
COMPS,ioos:station:USF.COMPS:ARP:1,2015-09-01T01:48:00Z,28.4330,-82.6670,95.53,1111122 
COMPS,ioos:station:USF.COMPS:ARP:1,2015-09-01T01:54:00Z,28.4330,-82.6670,95.62,1111122 
COMPS,ioos:station:USF.COMPS:ARP:1,2015-09-01T02:00:00Z,28.4330,-82.6670,95.67,1111122 
COMPS,ioos:station:USF.COMPS:ARP:1,2015-09-01T02:06:00Z,28.4330,-82.6670,95.69,1111122 
COMPS,ioos:station:USF.COMPS:ARP:1,2015-09-01T02:12:00Z,28.4330,-82.6670,95.9,1111122 
COMPS,ioos:station:USF.COMPS:ARP:1,2015-09-01T02:18:00Z,28.4330,-82.6670,95.89,1111122 
COMPS,ioos:station:USF.COMPS:ARP:1,2015-09-01T02:24:00Z,28.4330,-82.6670,96.03,1111122 
COMPS,ioos:station:USF.COMPS:ARP:1,2015-09-01T02:30:00Z,28.4330,-82.6670,96.0,1111122 
COMPS,ioos:station:USF.COMPS:ARP:1,2015-09-01T02:36:00Z,28.4330,-82.6670,96.12,1111122 
COMPS,ioos:station:USF.COMPS:ARP:1,2015-09-01T02:42:00Z,28.4330,-82.6670,96.11,1111122 
COMPS,ioos:station:USF.COMPS:ARP:1,2015-09-01T02:48:00Z,28.4330,-82.6670,96.1,1111122 
COMPS,ioos:station:USF.COMPS:ARP:1,2015-09-01T02:54:00Z,28.4330,-82.6670,96.08,1111122 
COMPS,ioos:station:USF.COMPS:ARP:1,2015-09-01T03:00:00Z,28.4330,-82.6670,95.97,1111122 
COMPS,ioos:station:USF.COMPS:ARP:1,2015-09-01T03:06:00Z,28.4330,-82.6670,96.14,1111122 
COMPS,ioos:station:USF.COMPS:ARP:1,2015-09-01T03:12:00Z,28.4330,-82.6670,96.45,1111122 
COMPS,ioos:station:USF.COMPS:ARP:1,2015-09-01T03:18:00Z,28.4330,-82.6670,96.54,1111122 
COMPS,ioos:station:USF.COMPS:ARP:1,2015-09-01T03:24:00Z,28.4330,-82.6670,96.73,1111122 
COMPS,ioos:station:USF.COMPS:ARP:1,2015-09-01T03:30:00Z,28.4330,-82.6670,96.72,1111122 
COMPS,ioos:station:USF.COMPS:ARP:1,2015-09-01T03:36:00Z,28.4330,-82.6670,96.8,1111122 
COMPS,ioos:station:USF.COMPS:ARP:1,2015-09-01T03:42:00Z,28.4330,-82.6670,96.92,1111122 
COMPS,ioos:station:USF.COMPS:ARP:1,2015-09-01T03:48:00Z,28.4330,-82.6670,96.88,1111122 
COMPS,ioos:station:USF.COMPS:ARP:1,2015-09-01T03:54:00Z,28.4330,-82.6670,97.0,1111122 
COMPS,ioos:station:USF.COMPS:ARP:1,2015-09-01T04:00:00Z,28.4330,-82.6670,97.12,1111122 
COMPS,ioos:station:USF.COMPS:ARP:1,2015-09-01T04:06:00Z,28.4330,-82.6670,97.11,1111122 
COMPS,ioos:station:USF.COMPS:ARP:1,2015-09-01T04:12:00Z,28.4330,-82.6670,97.22,1111122 
COMPS,ioos:station:USF.COMPS:ARP:1,2015-09-01T04:18:00Z,28.4330,-82.6670,97.27,1111122 
COMPS,ioos:station:USF.COMPS:ARP:1,2015-09-01T04:24:00Z,28.4330,-82.6670,97.3,1111122 
COMPS,ioos:station:USF.COMPS:ARP:1,2015-09-01T04:30:00Z,28.4330,-82.6670,97.36,1111122 
COMPS,ioos:station:USF.COMPS:ARP:1,2015-09-01T04:36:00Z,28.4330,-82.6670,97.36,1111122 
COMPS,ioos:station:USF.COMPS:ARP:1,2015-09-01T04:42:00Z,28.4330,-82.6670,97.43,1111122 
COMPS,ioos:station:USF.COMPS:ARP:1,2015-09-01T04:48:00Z,28.4330,-82.6670,97.5,1111122 
COMPS,ioos:station:USF.COMPS:ARP:1,2015-09-01T04:54:00Z,28.4330,-82.6670,97.51,1111122 
COMPS,ioos:station:USF.COMPS:ARP:1,2015-09-01T05:00:00Z,28.4330,-82.6670,97.58,1111122 
COMPS,ioos:station:USF.COMPS:ARP:1,2015-09-01T05:06:00Z,28.4330,-82.6670,97.6,1111122 
COMPS,ioos:station:USF.COMPS:ARP:1,2015-09-01T05:12:00Z,28.4330,-82.6670,97.68,1111122 
COMPS,ioos:station:USF.COMPS:ARP:1,2015-09-01T05:18:00Z,28.4330,-82.6670,97.67,1111122 
COMPS,ioos:station:USF.COMPS:ARP:1,2015-09-01T05:24:00Z,28.4330,-82.6670,97.77,1111122 
COMPS,ioos:station:USF.COMPS:ARP:1,2015-09-01T05:30:00Z,28.4330,-82.6670,97.77,1111122 
COMPS,ioos:station:USF.COMPS:ARP:1,2015-09-01T05:36:00Z,28.4330,-82.6670,97.83,1111122 
COMPS,ioos:station:USF.COMPS:ARP:1,2015-09-01T05:42:00Z,28.4330,-82.6670,97.86,1111122 
COMPS,ioos:station:USF.COMPS:ARP:1,2015-09-01T05:48:00Z,28.4330,-82.6670,97.88,1111122 
COMPS,ioos:station:USF.COMPS:ARP:1,2015-09-01T05:54:00Z,28.4330,-82.6670,97.91,1111122 
COMPS,ioos:station:USF.COMPS:ARP:1,2015-09-01T06:00:00Z,28.4330,-82.6670,97.96,1111122 
COMPS,ioos:station:USF.COMPS:ARP:1,2015-09-01T06:06:00Z,28.4330,-82.6670,97.96,1111122 
COMPS,ioos:station:USF.COMPS:ARP:1,2015-09-01T06:12:00Z,28.4330,-82.6670,98.0,1111122 
COMPS,ioos:station:USF.COMPS:ARP:1,2015-09-01T06:18:00Z,28.4330,-82.6670,98.0,1111122 
COMPS,ioos:station:USF.COMPS:ARP:1,2015-09-01T06:24:00Z,28.4330,-82.6670,98.05,1111122 
COMPS,ioos:station:USF.COMPS:ARP:1,2015-09-01T06:30:00Z,28.4330,-82.6670,98.06,1111122 
COMPS,ioos:station:USF.COMPS:ARP:1,2015-09-01T06:36:00Z,28.4330,-82.6670,98.1,1111122 
COMPS,ioos:station:USF.COMPS:ARP:1,2015-09-01T06:42:00Z,28.4330,-82.6670,94.2,1111122 
COMPS,ioos:station:USF.COMPS:ARP:1,2015-09-01T06:48:00Z,28.4330,-82.6670,98.11,1111122 
COMPS,ioos:station:USF.COMPS:ARP:1,2015-09-01T06:54:00Z,28.4330,-82.6670,98.12,1111122 
COMPS,ioos:station:USF.COMPS:ARP:1,2015-09-01T07:00:00Z,28.4330,-82.6670,98.12,1111122 
COMPS,ioos:station:USF.COMPS:ARP:1,2015-09-01T07:06:00Z,28.4330,-82.6670,98.15,1111122 
COMPS,ioos:station:USF.COMPS:ARP:1,2015-09-01T07:12:00Z,28.4330,-82.6670,98.15,1111122 
COMPS,ioos:station:USF.COMPS:ARP:1,2015-09-01T07:18:00Z,28.4330,-82.6670,98.15,1111122 
COMPS,ioos:station:USF.COMPS:ARP:1,2015-09-01T07:24:00Z,28.4330,-82.6670,98.22,1111122 
COMPS,ioos:station:USF.COMPS:ARP:1,2015-09-01T07:30:00Z,28.4330,-82.6670,98.21,1111122 
COMPS,ioos:station:USF.COMPS:ARP:1,2015-09-01T07:36:00Z,28.4330,-82.6670,98.19,1111122 
COMPS,ioos:station:USF.COMPS:ARP:1,2015-09-01T07:42:00Z,28.4330,-82.6670,98.21,1111122 
COMPS,ioos:station:USF.COMPS:ARP:1,2015-09-01T07:48:00Z,28.4330,-82.6670,98.28,1111122 
COMPS,ioos:station:USF.COMPS:ARP:1,2015-09-01T07:54:00Z,28.4330,-82.6670,98.26,1111122 
COMPS,ioos:station:USF.COMPS:ARP:1,2015-09-01T08:00:00Z,28.4330,-82.6670,98.26,1111122 
COMPS,ioos:station:USF.COMPS:ARP:1,2015-09-01T08:06:00Z,28.4330,-82.6670,98.27,1111122 
COMPS,ioos:station:USF.COMPS:ARP:1,2015-09-01T08:12:00Z,28.4330,-82.6670,98.31,1111122 
COMPS,ioos:station:USF.COMPS:ARP:1,2015-09-01T08:18:00Z,28.4330,-82.6670,98.31,1111122 
COMPS,ioos:station:USF.COMPS:ARP:1,2015-09-01T08:24:00Z,28.4330,-82.6670,98.34,1111122 
COMPS,ioos:station:USF.COMPS:ARP:1,2015-09-01T08:30:00Z,28.4330,-82.6670,98.34,1111122 
COMPS,ioos:station:USF.COMPS:ARP:1,2015-09-01T08:36:00Z,28.4330,-82.6670,98.36,1111122 
COMPS,ioos:station:USF.COMPS:ARP:1,2015-09-01T08:42:00Z,28.4330,-82.6670,98.37,1111122 
COMPS,ioos:station:USF.COMPS:ARP:1,2015-09-01T08:48:00Z,28.4330,-82.6670,98.39,1111122 
COMPS,ioos:station:USF.COMPS:ARP:1,2015-09-01T08:54:00Z,28.4330,-82.6670,98.37,1111122 
COMPS,ioos:station:USF.COMPS:ARP:1,2015-09-01T09:00:00Z,28.4330,-82.6670,98.39,1111122 
COMPS,ioos:station:USF.COMPS:ARP:1,2015-09-01T09:06:00Z,28.4330,-82.6670,98.44,1111122 
COMPS,ioos:station:USF.COMPS:ARP:1,2015-09-01T09:12:00Z,28.4330,-82.6670,98.41,1111122 
COMPS,ioos:station:USF.COMPS:ARP:1,2015-09-01T09:18:00Z,28.4330,-82.6670,98.45,1111122 
COMPS,ioos:station:USF.COMPS:ARP:1,2015-09-01T09:24:00Z,28.4330,-82.6670,98.45,1111122 
COMPS,ioos:station:USF.COMPS:ARP:1,2015-09-01T09:30:00Z,28.4330,-82.6670,98.48,1111122 
COMPS,ioos:station:USF.COMPS:ARP:1,2015-09-01T09:36:00Z,28.4330,-82.6670,98.51,1111122 
COMPS,ioos:station:USF.COMPS:ARP:1,2015-09-01T09:42:00Z,28.4330,-82.6670,98.5,1111122 
COMPS,ioos:station:USF.COMPS:ARP:1,2015-09-01T09:48:00Z,28.4330,-82.6670,98.53,1111122 
COMPS,ioos:station:USF.COMPS:ARP:1,2015-09-01T09:54:00Z,28.4330,-82.6670,98.54,1111122 
COMPS,ioos:station:USF.COMPS:ARP:1,2015-09-01T10:00:00Z,28.4330,-82.6670,94.58,1111122 
COMPS,ioos:station:USF.COMPS:ARP:1,2015-09-01T10:06:00Z,28.4330,-82.6670,98.54,1111122 
COMPS,ioos:station:USF.COMPS:ARP:1,2015-09-01T10:12:00Z,28.4330,-82.6670,98.54,1111122 
COMPS,ioos:station:USF.COMPS:ARP:1,2015-09-01T10:18:00Z,28.4330,-82.6670,98.52,1111122 
COMPS,ioos:station:USF.COMPS:ARP:1,2015-09-01T10:24:00Z,28.4330,-82.6670,98.53,1111122 
COMPS,ioos:station:USF.COMPS:ARP:1,2015-09-01T10:30:00Z,28.4330,-82.6670,98.52,1111122 
COMPS,ioos:station:USF.COMPS:ARP:1,2015-09-01T10:36:00Z,28.4330,-82.6670,98.52,1111122 
COMPS,ioos:station:USF.COMPS:ARP:1,2015-09-01T10:42:00Z,28.4330,-82.6670,98.49,1111122 
COMPS,ioos:station:USF.COMPS:ARP:1,2015-09-01T10:48:00Z,28.4330,-82.6670,98.54,1111122 
COMPS,ioos:station:USF.COMPS:ARP:1,2015-09-01T10:54:00Z,28.4330,-82.6670,98.5,1111122 
COMPS,ioos:station:USF.COMPS:ARP:1,2015-09-01T11:00:00Z,28.4330,-82.6670,98.54,1111122 
COMPS,ioos:station:USF.COMPS:ARP:1,2015-09-01T11:06:00Z,28.4330,-82.6670,98.56,1111122 
COMPS,ioos:station:USF.COMPS:ARP:1,2015-09-01T11:12:00Z,28.4330,-82.6670,98.55,1111122 
COMPS,ioos:station:USF.COMPS:ARP:1,2015-09-01T11:18:00Z,28.4330,-82.6670,98.52,1111122 
COMPS,ioos:station:USF.COMPS:ARP:1,2015-09-01T11:24:00Z,28.4330,-82.6670,98.54,1111122 
COMPS,ioos:station:USF.COMPS:ARP:1,2015-09-01T11:30:00Z,28.4330,-82.6670,98.55,1111122 
COMPS,ioos:station:USF.COMPS:ARP:1,2015-09-01T11:36:00Z,28.4330,-82.6670,98.55,1111122 
COMPS,ioos:station:USF.COMPS:ARP:1,2015-09-01T11:42:00Z,28.4330,-82.6670,98.52,1111122 
COMPS,ioos:station:USF.COMPS:ARP:1,2015-09-01T11:48:00Z,28.4330,-82.6670,98.47,1111122 
COMPS,ioos:station:USF.COMPS:ARP:1,2015-09-01T11:54:00Z,28.4330,-82.6670,98.36,1111122 
COMPS,ioos:station:USF.COMPS:ARP:1,2015-09-01T12:00:00Z,28.4330,-82.6670,98.32,1111122 
COMPS,ioos:station:USF.COMPS:ARP:1,2015-09-01T12:06:00Z,28.4330,-82.6670,98.18,1111122 
COMPS,ioos:station:USF.COMPS:ARP:1,2015-09-01T12:12:00Z,28.4330,-82.6670,98.14,1111122 
COMPS,ioos:station:USF.COMPS:ARP:1,2015-09-01T12:18:00Z,28.4330,-82.6670,97.97,1111122 
COMPS,ioos:station:USF.COMPS:ARP:1,2015-09-01T12:24:00Z,28.4330,-82.6670,97.81,1111122 
COMPS,ioos:station:USF.COMPS:ARP:1,2015-09-01T12:30:00Z,28.4330,-82.6670,97.58,1111122 
COMPS,ioos:station:USF.COMPS:ARP:1,2015-09-01T12:36:00Z,28.4330,-82.6670,97.17,1111122 
COMPS,ioos:station:USF.COMPS:ARP:1,2015-09-01T12:42:00Z,28.4330,-82.6670,96.74,1111122 
COMPS,ioos:station:USF.COMPS:ARP:1,2015-09-01T12:48:00Z,28.4330,-82.6670,96.11,1111122 
COMPS,ioos:station:USF.COMPS:ARP:1,2015-09-01T12:54:00Z,28.4330,-82.6670,95.36,1111122 
COMPS,ioos:station:USF.COMPS:ARP:1,2015-09-01T13:00:00Z,28.4330,-82.6670,94.53,1111122 
COMPS,ioos:station:USF.COMPS:ARP:1,2015-09-01T13:06:00Z,28.4330,-82.6670,93.51,1111122 
COMPS,ioos:station:USF.COMPS:ARP:1,2015-09-01T13:12:00Z,28.4330,-82.6670,92.21,1111122 
COMPS,ioos:station:USF.COMPS:ARP:1,2015-09-01T13:18:00Z,28.4330,-82.6670,90.97,1111122 
COMPS,ioos:station:USF.COMPS:ARP:1,2015-09-01T13:24:00Z,28.4330,-82.6670,89.89,1111122 
COMPS,ioos:station:USF.COMPS:ARP:1,2015-09-01T13:30:00Z,28.4330,-82.6670,88.6,1111122 
COMPS,ioos:station:USF.COMPS:ARP:1,2015-09-01T13:36:00Z,28.4330,-82.6670,87.36,1111122 
COMPS,ioos:station:USF.COMPS:ARP:1,2015-09-01T13:42:00Z,28.4330,-82.6670,86.15,1111122 
COMPS,ioos:station:USF.COMPS:ARP:1,2015-09-01T13:48:00Z,28.4330,-82.6670,84.96,1111122 
COMPS,ioos:station:USF.COMPS:ARP:1,2015-09-01T13:54:00Z,28.4330,-82.6670,84.12,1111122 
COMPS,ioos:station:USF.COMPS:ARP:1,2015-09-01T14:00:00Z,28.4330,-82.6670,83.19,1111122 
COMPS,ioos:station:USF.COMPS:ARP:1,2015-09-01T14:06:00Z,28.4330,-82.6670,82.77,1111122 
COMPS,ioos:station:USF.COMPS:ARP:1,2015-09-01T14:12:00Z,28.4330,-82.6670,82.23,1111122 
COMPS,ioos:station:USF.COMPS:ARP:1,2015-09-01T14:18:00Z,28.4330,-82.6670,81.77,1111122 
COMPS,ioos:station:USF.COMPS:ARP:1,2015-09-01T14:24:00Z,28.4330,-82.6670,82.05,1111122 
COMPS,ioos:station:USF.COMPS:ARP:1,2015-09-01T14:30:00Z,28.4330,-82.6670,82.51,1111122 
COMPS,ioos:station:USF.COMPS:ARP:1,2015-09-01T14:36:00Z,28.4330,-82.6670,82.38,1111122 
COMPS,ioos:station:USF.COMPS:ARP:1,2015-09-01T14:42:00Z,28.4330,-82.6670,82.18,1111122 
COMPS,ioos:station:USF.COMPS:ARP:1,2015-09-01T14:48:00Z,28.4330,-82.6670,81.94,1111122 
COMPS,ioos:station:USF.COMPS:ARP:1,2015-09-01T14:54:00Z,28.4330,-82.6670,80.5,1111122 
COMPS,ioos:station:USF.COMPS:ARP:1,2015-09-01T15:00:00Z,28.4330,-82.6670,78.2,1111122 
COMPS,ioos:station:USF.COMPS:ARP:1,2015-09-01T15:06:00Z,28.4330,-82.6670,77.35,1111122 
COMPS,ioos:station:USF.COMPS:ARP:1,2015-09-01T15:12:00Z,28.4330,-82.6670,78.53,1111122 
COMPS,ioos:station:USF.COMPS:ARP:1,2015-09-01T15:18:00Z,28.4330,-82.6670,81.43,1111122 
COMPS,ioos:station:USF.COMPS:ARP:1,2015-09-01T15:24:00Z,28.4330,-82.6670,84.92,1111122 
COMPS,ioos:station:USF.COMPS:ARP:1,2015-09-01T15:30:00Z,28.4330,-82.6670,85.33,1111122 
COMPS,ioos:station:USF.COMPS:ARP:1,2015-09-01T15:36:00Z,28.4330,-82.6670,87.45,1111122 
COMPS,ioos:station:USF.COMPS:ARP:1,2015-09-01T15:42:00Z,28.4330,-82.6670,88.85,1111122 
COMPS,ioos:station:USF.COMPS:ARP:1,2015-09-01T15:48:00Z,28.4330,-82.6670,89.51,1111122 
COMPS,ioos:station:USF.COMPS:ARP:1,2015-09-01T15:54:00Z,28.4330,-82.6670,89.41,1111122 
COMPS,ioos:station:USF.COMPS:ARP:1,2015-09-01T16:00:00Z,28.4330,-82.6670,85.04,1111122 
COMPS,ioos:station:USF.COMPS:ARP:1,2015-09-01T16:06:00Z,28.4330,-82.6670,89.07,1111122 
COMPS,ioos:station:USF.COMPS:ARP:1,2015-09-01T16:12:00Z,28.4330,-82.6670,88.97,1111122 
COMPS,ioos:station:USF.COMPS:ARP:1,2015-09-01T16:18:00Z,28.4330,-82.6670,88.64,1111122 
COMPS,ioos:station:USF.COMPS:ARP:1,2015-09-01T16:24:00Z,28.4330,-82.6670,87.91,1111122 
COMPS,ioos:station:USF.COMPS:ARP:1,2015-09-01T16:30:00Z,28.4330,-82.6670,87.06,1111122 
COMPS,ioos:station:USF.COMPS:ARP:1,2015-09-01T16:36:00Z,28.4330,-82.6670,85.79,1111122 
COMPS,ioos:station:USF.COMPS:ARP:1,2015-09-01T16:42:00Z,28.4330,-82.6670,84.71,1111122 
COMPS,ioos:station:USF.COMPS:ARP:1,2015-09-01T16:48:00Z,28.4330,-82.6670,86.3,1111122 
COMPS,ioos:station:USF.COMPS:ARP:1,2015-09-01T16:54:00Z,28.4330,-82.6670,86.21,1111122 
COMPS,ioos:station:USF.COMPS:ARP:1,2015-09-01T17:00:00Z,28.4330,-82.6670,89.07,1111122 
COMPS,ioos:station:USF.COMPS:ARP:1,2015-09-01T17:06:00Z,28.4330,-82.6670,90.8,1111122 
COMPS,ioos:station:USF.COMPS:ARP:1,2015-09-01T17:12:00Z,28.4330,-82.6670,90.45,1111122 
COMPS,ioos:station:USF.COMPS:ARP:1,2015-09-01T17:18:00Z,28.4330,-82.6670,90.09,1111122 
COMPS,ioos:station:USF.COMPS:ARP:1,2015-09-01T17:24:00Z,28.4330,-82.6670,90.03,1111122 
COMPS,ioos:station:USF.COMPS:ARP:1,2015-09-01T17:30:00Z,28.4330,-82.6670,90.01,1111122 
COMPS,ioos:station:USF.COMPS:ARP:1,2015-09-01T17:36:00Z,28.4330,-82.6670,90.01,1111122 
COMPS,ioos:station:USF.COMPS:ARP:1,2015-09-01T17:42:00Z,28.4330,-82.6670,90.14,1111122 
COMPS,ioos:station:USF.COMPS:ARP:1,2015-09-01T17:48:00Z,28.4330,-82.6670,89.91,1111122 
COMPS,ioos:station:USF.COMPS:ARP:1,2015-09-01T17:54:00Z,28.4330,-82.6670,89.58,1111122 
COMPS,ioos:station:USF.COMPS:ARP:1,2015-09-01T18:00:00Z,28.4330,-82.6670,88.88,1111122 
COMPS,ioos:station:USF.COMPS:ARP:1,2015-09-01T18:06:00Z,28.4330,-82.6670,87.62,1111122 
COMPS,ioos:station:USF.COMPS:ARP:1,2015-09-01T18:12:00Z,28.4330,-82.6670,85.86,1111122 
COMPS,ioos:station:USF.COMPS:ARP:1,2015-09-01T18:18:00Z,28.4330,-82.6670,84.31,1111122 
COMPS,ioos:station:USF.COMPS:ARP:1,2015-09-01T18:24:00Z,28.4330,-82.6670,83.94,1111122 
COMPS,ioos:station:USF.COMPS:ARP:1,2015-09-01T18:30:00Z,28.4330,-82.6670,83.11,1111122 
COMPS,ioos:station:USF.COMPS:ARP:1,2015-09-01T18:36:00Z,28.4330,-82.6670,81.78,1111122 
COMPS,ioos:station:USF.COMPS:ARP:1,2015-09-01T18:42:00Z,28.4330,-82.6670,81.35,1111122 
COMPS,ioos:station:USF.COMPS:ARP:1,2015-09-01T18:48:00Z,28.4330,-82.6670,81.73,1111122 
COMPS,ioos:station:USF.COMPS:ARP:1,2015-09-01T18:54:00Z,28.4330,-82.6670,81.43,1111122 
COMPS,ioos:station:USF.COMPS:ARP:1,2015-09-01T19:00:00Z,28.4330,-82.6670,80.63,1111122 
COMPS,ioos:station:USF.COMPS:ARP:1,2015-09-01T19:06:00Z,28.4330,-82.6670,80.49,1111122 
COMPS,ioos:station:USF.COMPS:ARP:1,2015-09-01T19:12:00Z,28.4330,-82.6670,79.5,1111122 
COMPS,ioos:station:USF.COMPS:ARP:1,2015-09-01T19:18:00Z,28.4330,-82.6670,79.17,1111122 
COMPS,ioos:station:USF.COMPS:ARP:1,2015-09-01T19:24:00Z,28.4330,-82.6670,78.91,1111122 
COMPS,ioos:station:USF.COMPS:ARP:1,2015-09-01T19:30:00Z,28.4330,-82.6670,79.36,1111122 
COMPS,ioos:station:USF.COMPS:ARP:1,2015-09-01T19:36:00Z,28.4330,-82.6670,80.18,1111122 
COMPS,ioos:station:USF.COMPS:ARP:1,2015-09-01T19:42:00Z,28.4330,-82.6670,80.95,1111122 
COMPS,ioos:station:USF.COMPS:ARP:1,2015-09-01T19:48:00Z,28.4330,-82.6670,81.05,1111122 
COMPS,ioos:station:USF.COMPS:ARP:1,2015-09-01T19:54:00Z,28.4330,-82.6670,81.06,1111122 
COMPS,ioos:station:USF.COMPS:ARP:1,2015-09-01T20:00:00Z,28.4330,-82.6670,80.44,1111122 
COMPS,ioos:station:USF.COMPS:ARP:1,2015-09-01T20:06:00Z,28.4330,-82.6670,80.36,1111122 
COMPS,ioos:station:USF.COMPS:ARP:1,2015-09-01T20:12:00Z,28.4330,-82.6670,79.68,1111122 
COMPS,ioos:station:USF.COMPS:ARP:1,2015-09-01T20:18:00Z,28.4330,-82.6670,77.64,1111122 
COMPS,ioos:station:USF.COMPS:ARP:1,2015-09-01T20:24:00Z,28.4330,-82.6670,77.9,1111122 
COMPS,ioos:station:USF.COMPS:ARP:1,2015-09-01T20:30:00Z,28.4330,-82.6670,78.31,1111122 
COMPS,ioos:station:USF.COMPS:ARP:1,2015-09-01T20:36:00Z,28.4330,-82.6670,77.41,1111122 
COMPS,ioos:station:USF.COMPS:ARP:1,2015-09-01T20:42:00Z,28.4330,-82.6670,76.53,1111122 
COMPS,ioos:station:USF.COMPS:ARP:1,2015-09-01T20:48:00Z,28.4330,-82.6670,77.45,1111122 
COMPS,ioos:station:USF.COMPS:ARP:1,2015-09-01T20:54:00Z,28.4330,-82.6670,78.09,1111122 
COMPS,ioos:station:USF.COMPS:ARP:1,2015-09-01T21:00:00Z,28.4330,-82.6670,78.84,1111122 
COMPS,ioos:station:USF.COMPS:ARP:1,2015-09-01T21:06:00Z,28.4330,-82.6670,79.02,1111122 
COMPS,ioos:station:USF.COMPS:ARP:1,2015-09-01T21:12:00Z,28.4330,-82.6670,79.34,1111122 
COMPS,ioos:station:USF.COMPS:ARP:1,2015-09-01T21:18:00Z,28.4330,-82.6670,78.92,1111122 
COMPS,ioos:station:USF.COMPS:ARP:1,2015-09-01T21:24:00Z,28.4330,-82.6670,78.73,1111122 
COMPS,ioos:station:USF.COMPS:ARP:1,2015-09-01T21:30:00Z,28.4330,-82.6670,78.79,1111122 
COMPS,ioos:station:USF.COMPS:ARP:1,2015-09-01T21:36:00Z,28.4330,-82.6670,78.89,1111122 
COMPS,ioos:station:USF.COMPS:ARP:1,2015-09-01T21:42:00Z,28.4330,-82.6670,79.01,1111122 
COMPS,ioos:station:USF.COMPS:ARP:1,2015-09-01T21:48:00Z,28.4330,-82.6670,78.82,1111122 
COMPS,ioos:station:USF.COMPS:ARP:1,2015-09-01T21:54:00Z,28.4330,-82.6670,79.06,1111122 
COMPS,ioos:station:USF.COMPS:ARP:1,2015-09-01T22:00:00Z,28.4330,-82.6670,78.98,1111122 
COMPS,ioos:station:USF.COMPS:ARP:1,2015-09-01T22:06:00Z,28.4330,-82.6670,78.56,1111122 
COMPS,ioos:station:USF.COMPS:ARP:1,2015-09-01T22:12:00Z,28.4330,-82.6670,77.69,1111122 
COMPS,ioos:station:USF.COMPS:ARP:1,2015-09-01T22:18:00Z,28.4330,-82.6670,76.81,1111122 
COMPS,ioos:station:USF.COMPS:ARP:1,2015-09-01T22:24:00Z,28.4330,-82.6670,76.24,1111122 
COMPS,ioos:station:USF.COMPS:ARP:1,2015-09-01T22:30:00Z,28.4330,-82.6670,76.09,1111122 
COMPS,ioos:station:USF.COMPS:ARP:1,2015-09-01T22:36:00Z,28.4330,-82.6670,76.07,1111122 
COMPS,ioos:station:USF.COMPS:ARP:1,2015-09-01T22:42:00Z,28.4330,-82.6670,76.8,1111122 
COMPS,ioos:station:USF.COMPS:ARP:1,2015-09-01T22:48:00Z,28.4330,-82.6670,77.39,1111122 
COMPS,ioos:station:USF.COMPS:ARP:1,2015-09-01T22:54:00Z,28.4330,-82.6670,77.6,1111122 
COMPS,ioos:station:USF.COMPS:ARP:1,2015-09-01T23:00:00Z,28.4330,-82.6670,77.36,1111122 
COMPS,ioos:station:USF.COMPS:ARP:1,2015-09-01T23:06:00Z,28.4330,-82.6670,77.31,1111122 
COMPS,ioos:station:USF.COMPS:ARP:1,2015-09-01T23:12:00Z,28.4330,-82.6670,78.18,1111122 
COMPS,ioos:station:USF.COMPS:ARP:1,2015-09-01T23:18:00Z,28.4330,-82.6670,78.98,1111122 
COMPS,ioos:station:USF.COMPS:ARP:1,2015-09-01T23:24:00Z,28.4330,-82.6670,79.65,1111122 
COMPS,ioos:station:USF.COMPS:ARP:1,2015-09-01T23:30:00Z,28.4330,-82.6670,81.09,1111122 
COMPS,ioos:station:USF.COMPS:ARP:1,2015-09-01T23:36:00Z,28.4330,-82.6670,82.1,1111122 
COMPS,ioos:station:USF.COMPS:ARP:1,2015-09-01T23:42:00Z,28.4330,-82.6670,82.73,1111122 
COMPS,ioos:station:USF.COMPS:ARP:1,2015-09-01T23:48:00Z,28.4330,-82.6670,83.9,1111122 
COMPS,ioos:station:USF.COMPS:ARP:1,2015-09-01T23:54:00Z,28.4330,-82.6670,85.08,1111122 
COMPS,ioos:station:USF.COMPS:ARP:1,2015-09-02T00:00:00Z,28.4330,-82.6670,85.69,1111122 
COMPS,ioos:station:USF.COMPS:ARP:1,2015-09-02T00:06:00Z,28.4330,-82.6670,86.36,1111122 
COMPS,ioos:station:USF.COMPS:ARP:1,2015-09-02T00:12:00Z,28.4330,-82.6670,86.68,1111122 
COMPS,ioos:station:USF.COMPS:ARP:1,2015-09-02T00:18:00Z,28.4330,-82.6670,87.22,1111122 
COMPS,ioos:station:USF.COMPS:ARP:1,2015-09-02T00:24:00Z,28.4330,-82.6670,87.72,1111122 
COMPS,ioos:station:USF.COMPS:ARP:1,2015-09-02T00:30:00Z,28.4330,-82.6670,87.95,1111122 
COMPS,ioos:station:USF.COMPS:ARP:1,2015-09-02T00:36:00Z,28.4330,-82.6670,88.34,1111122 
COMPS,ioos:station:USF.COMPS:ARP:1,2015-09-02T00:42:00Z,28.4330,-82.6670,88.8,1111122 
COMPS,ioos:station:USF.COMPS:ARP:1,2015-09-02T00:48:00Z,28.4330,-82.6670,88.93,1111122 
COMPS,ioos:station:USF.COMPS:ARP:1,2015-09-02T00:54:00Z,28.4330,-82.6670,89.44,1111122 
COMPS,ioos:station:USF.COMPS:ARP:1,2015-09-02T01:00:00Z,28.4330,-82.6670,89.85,1111122 
COMPS,ioos:station:USF.COMPS:ARP:1,2015-09-02T01:06:00Z,28.4330,-82.6670,90.61,1111122 
COMPS,ioos:station:USF.COMPS:ARP:1,2015-09-02T01:12:00Z,28.4330,-82.6670,91.29,1111122 
COMPS,ioos:station:USF.COMPS:ARP:1,2015-09-02T01:18:00Z,28.4330,-82.6670,91.98,1111122 
COMPS,ioos:station:USF.COMPS:ARP:1,2015-09-02T01:24:00Z,28.4330,-82.6670,92.36,1111122 
COMPS,ioos:station:USF.COMPS:ARP:1,2015-09-02T01:30:00Z,28.4330,-82.6670,93.0,1111122 
COMPS,ioos:station:USF.COMPS:ARP:1,2015-09-02T01:36:00Z,28.4330,-82.6670,93.29,1111122 
COMPS,ioos:station:USF.COMPS:ARP:1,2015-09-02T01:42:00Z,28.4330,-82.6670,93.46,1111122 
COMPS,ioos:station:USF.COMPS:ARP:1,2015-09-02T01:48:00Z,28.4330,-82.6670,93.59,1111122 
COMPS,ioos:station:USF.COMPS:ARP:1,2015-09-02T01:54:00Z,28.4330,-82.6670,93.87,1111122 
COMPS,ioos:station:USF.COMPS:ARP:1,2015-09-02T02:00:00Z,28.4330,-82.6670,94.18,1111122 
COMPS,ioos:station:USF.COMPS:ARP:1,2015-09-02T02:06:00Z,28.4330,-82.6670,94.31,1111122 
COMPS,ioos:station:USF.COMPS:ARP:1,2015-09-02T02:12:00Z,28.4330,-82.6670,94.46,1111122 
COMPS,ioos:station:USF.COMPS:ARP:1,2015-09-02T02:18:00Z,28.4330,-82.6670,94.61,1111122 
COMPS,ioos:station:USF.COMPS:ARP:1,2015-09-02T02:24:00Z,28.4330,-82.6670,94.78,1111122 
COMPS,ioos:station:USF.COMPS:ARP:1,2015-09-02T02:30:00Z,28.4330,-82.6670,94.88,1111122 
COMPS,ioos:station:USF.COMPS:ARP:1,2015-09-02T02:36:00Z,28.4330,-82.6670,94.97,1111122 
COMPS,ioos:station:USF.COMPS:ARP:1,2015-09-02T02:42:00Z,28.4330,-82.6670,94.92,1111122 
COMPS,ioos:station:USF.COMPS:ARP:1,2015-09-02T02:48:00Z,28.4330,-82.6670,95.03,1111122 
COMPS,ioos:station:USF.COMPS:ARP:1,2015-09-02T02:54:00Z,28.4330,-82.6670,95.02,1111122 
COMPS,ioos:station:USF.COMPS:ARP:1,2015-09-02T03:00:00Z,28.4330,-82.6670,95.1,1111122 
COMPS,ioos:station:USF.COMPS:ARP:1,2015-09-02T03:06:00Z,28.4330,-82.6670,95.17,1111122 